EN

Hourly Weather Brejo Santo

Today, 20 April, Tuesday

Time Temperature Precipitation Wind Pressure Humidity
00:00 +21°C° 0 mm 0 mps 724 mmHg 91%
01:00 +21°C° 0 mm 0 mps 724 mmHg 92%
02:00 +20°C° 0 mm 0 mps 724 mmHg 93%
03:00 +20°C° 0 mm 0 mps 723 mmHg 95%
04:00 +20°C° 0 mm 0 mps 724 mmHg 94%
05:00 +20°C° 0 mm 0 mps 724 mmHg 94%
06:00 +20°C° 0 mm 0 mps 724 mmHg 93%
07:00 +22°C° 0 mm 0 mps 725 mmHg 86%
08:00 +24°C° 0 mm 0 mps 725 mmHg 78%
09:00 +25°C° 0 mm 0 mps 726 mmHg 71%
10:00 +30°C° 0 mm 1 mps 725 mmHg 61%
11:00 +32°C° 0 mm 1 mps 725 mmHg 52%
12:00 +34°C° 0 mm 1 mps 724 mmHg 42%
13:00 +34°C° 0 mm 1 mps 723 mmHg 43%
14:00 +34°C° 0 mm 2 mps 723 mmHg 43%
15:00 +34°C° 0 mm 2 mps 722 mmHg 44%
16:00 +31°C° 0.1 mm 1 mps 722 mmHg 52%
17:00 +29°C° 0.1 mm 1 mps 723 mmHg 61%
18:00 +26°C° 0.1 mm 1 mps 723 mmHg 70%
19:00 +26°C° 0.1 mm 1 mps 723 mmHg 73%
20:00 +25°C° 0.1 mm 1 mps 724 mmHg 77%
21:00 +23°C° 0.1 mm 0 mps 724 mmHg 81%
22:00 +22°C° 0.3 mm 0 mps 724 mmHg 85%
23:00 +21°C° 0.3 mm 0 mps 724 mmHg 88%

Tomorrow, 21 April, Wednesday

Time Temperature Precipitation Wind Pressure Humidity
00:00 +21°C° 0.3 mm 0 mps 724 mmHg 92%
01:00 +23°C° 0 mm 1 mps 724 mmHg 93%
02:00 +22°C° 0 mm 1 mps 724 mmHg 93%
03:00 +22°C° 0 mm 1 mps 723 mmHg 94%
04:00 +22°C° 0 mm 1 mps 724 mmHg 95%
05:00 +22°C° 0 mm 1 mps 724 mmHg 96%
06:00 +22°C° 0 mm 1 mps 724 mmHg 96%
07:00 +24°C° 0 mm 1 mps 725 mmHg 86%
08:00 +26°C° 0 mm 2 mps 725 mmHg 76%
09:00 +29°C° 0 mm 2 mps 726 mmHg 66%
10:00 +31°C° 0 mm 2 mps 725 mmHg 58%
11:00 +32°C° 0 mm 2 mps 725 mmHg 50%
12:00 +35°C° 0 mm 2 mps 724 mmHg 42%
13:00 +34°C° 0 mm 2 mps 723 mmHg 45%
14:00 +34°C° 0 mm 2 mps 723 mmHg 47%
15:00 +32°C° 0 mm 2 mps 722 mmHg 50%
16:00 +30°C° 0.1 mm 2 mps 722 mmHg 57%
17:00 +29°C° 0.1 mm 2 mps 723 mmHg 64%
18:00 +27°C° 0.1 mm 2 mps 723 mmHg 72%
19:00 +26°C° 0.2 mm 1 mps 724 mmHg 77%
20:00 +25°C° 0.2 mm 1 mps 724 mmHg 81%
21:00 +25°C° 0.2 mm 1 mps 725 mmHg 86%
22:00 +24°C° 0 mm 1 mps 724 mmHg 87%
23:00 +24°C° 0 mm 1 mps 724 mmHg 88%

Day after tomorrow, 22 April, Thursday

Time Temperature Precipitation Wind Pressure Humidity
00:00 +24°C° 0 mm 1 mps 724 mmHg 89%
01:00 +23°C° 0 mm 1 mps 724 mmHg 90%
02:00 +21°C° 0 mm 0 mps 724 mmHg 91%
03:00 +21°C° 0 mm 0 mps 724 mmHg 92%
04:00 +21°C° 0 mm 0 mps 724 mmHg 92%
05:00 +21°C° 0 mm 0 mps 724 mmHg 92%
06:00 +21°C° 0 mm 0 mps 725 mmHg 92%
07:00 +25°C° 0 mm 1 mps 725 mmHg 83%
08:00 +27°C° 0 mm 1 mps 725 mmHg 73%
09:00 +30°C° 0 mm 1 mps 726 mmHg 64%
10:00 +30°C° 0.3 mm 1 mps 725 mmHg 62%
11:00 +31°C° 0.3 mm 2 mps 725 mmHg 60%
12:00 +32°C° 0.3 mm 2 mps 724 mmHg 57%
13:00 +31°C° 0.7 mm 2 mps 724 mmHg 60%
14:00 +31°C° 0.7 mm 1 mps 723 mmHg 63%
15:00 +30°C° 0.7 mm 1 mps 722 mmHg 66%
16:00 +29°C° 0.6 mm 1 mps 723 mmHg 73%
17:00 +27°C° 0.6 mm 1 mps 723 mmHg 80%
18:00 +25°C° 0.6 mm 1 mps 723 mmHg 87%
19:00 +25°C° 0.9 mm 1 mps 723 mmHg 90%
20:00 +24°C° 0.9 mm 1 mps 724 mmHg 92%
21:00 +21°C° 0.9 mm 0 mps 724 mmHg 95%
22:00 +21°C° 1.3 mm 0 mps 724 mmHg 95%
23:00 +21°C° 1.3 mm 0 mps 724 mmHg 96%

23 April, Friday

Time Temperature Precipitation Wind Pressure Humidity
00:00 +21°C° 1.3 mm 0 mps 724 mmHg 96%
01:00 +21°C° 0.2 mm 0 mps 724 mmHg 96%
02:00 +21°C° 0.2 mm 0 mps 724 mmHg 96%
03:00 +21°C° 0.2 mm 0 mps 724 mmHg 96%
04:00 +21°C° 0.1 mm 0 mps 724 mmHg 96%
05:00 +21°C° 0.1 mm 0 mps 725 mmHg 96%
06:00 +21°C° 0.1 mm 0 mps 725 mmHg 95%
07:00 +22°C° 0.3 mm 0 mps 725 mmHg 94%
08:00 +22°C° 0.3 mm 0 mps 726 mmHg 92%
09:00 +23°C° 0.3 mm 0 mps 726 mmHg 91%
10:00 +25°C° 0.5 mm 0 mps 725 mmHg 82%
11:00 +29°C° 0.5 mm 1 mps 725 mmHg 72%
12:00 +31°C° 0.5 mm 1 mps 724 mmHg 63%
13:00 +31°C° 1.2 mm 1 mps 724 mmHg 67%
14:00 +30°C° 1.2 mm 1 mps 723 mmHg 71%
15:00 +30°C° 1.2 mm 1 mps 722 mmHg 76%
16:00 +28°C° 0.9 mm 1 mps 723 mmHg 80%
17:00 +27°C° 0.9 mm 1 mps 723 mmHg 84%
18:00 +25°C° 0.9 mm 1 mps 723 mmHg 88%
19:00 +25°C° 0.9 mm 1 mps 723 mmHg 89%
20:00 +25°C° 0.9 mm 2 mps 724 mmHg 91%
21:00 +24°C° 0.9 mm 2 mps 724 mmHg 93%
22:00 +24°C° 0 mm 1 mps 724 mmHg 93%
23:00 +24°C° 0 mm 1 mps 724 mmHg 93%

24 April, Saturday

Time Temperature Precipitation Wind Pressure Humidity
00:00 +22°C° 0 mm 0 mps 724 mmHg 93%
01:00 +21°C° 0 mm 0 mps 723 mmHg 93%
02:00 +21°C° 0 mm 0 mps 723 mmHg 94%
03:00 +21°C° 0 mm 0 mps 723 mmHg 94%
04:00 +20°C° 0 mm 0 mps 723 mmHg 94%
05:00 +20°C° 0 mm 0 mps 723 mmHg 95%
06:00 +20°C° 0 mm 0 mps 724 mmHg 95%
07:00 +24°C° 0 mm 1 mps 724 mmHg 82%
08:00 +27°C° 0 mm 1 mps 725 mmHg 70%
09:00 +29°C° 0 mm 1 mps 726 mmHg 57%
10:00 +31°C° 0 mm 1 mps 725 mmHg 48%
11:00 +32°C° 0 mm 1 mps 725 mmHg 40%
12:00 +34°C° 0 mm 1 mps 724 mmHg 32%
13:00 +34°C° 0 mm 1 mps 724 mmHg 31%
14:00 +35°C° 0 mm 1 mps 723 mmHg 30%
15:00 +36°C° 0 mm 2 mps 722 mmHg 29%
16:00 +32°C° 0 mm 1 mps 722 mmHg 39%
17:00 +29°C° 0 mm 1 mps 722 mmHg 48%
18:00 +27°C° 0 mm 1 mps 723 mmHg 57%
19:00 +26°C° 0 mm 1 mps 723 mmHg 62%
20:00 +25°C° 0 mm 1 mps 724 mmHg 68%
21:00 +24°C° 0 mm 1 mps 724 mmHg 73%
22:00 +24°C° 0.1 mm 1 mps 724 mmHg 75%
23:00 +24°C° 0.1 mm 1 mps 724 mmHg 76%

25 April, Sunday

Time Temperature Precipitation Wind Pressure Humidity
00:00 +23°C° 0.1 mm 1 mps 724 mmHg 77%
01:00 +24°C° 0.1 mm 1 mps 724 mmHg 78%
02:00 +24°C° 0.1 mm 1 mps 723 mmHg 79%
03:00 +22°C° 0.1 mm 0 mps 723 mmHg 80%
04:00 +21°C° 0 mm 0 mps 723 mmHg 83%
05:00 +21°C° 0 mm 0 mps 724 mmHg 86%
06:00 +21°C° 0 mm 0 mps 724 mmHg 88%
07:00 +25°C° 0 mm 1 mps 725 mmHg 78%
08:00 +27°C° 0 mm 1 mps 725 mmHg 68%
09:00 +30°C° 0 mm 1 mps 726 mmHg 58%
10:00 +31°C° 0 mm 1 mps 725 mmHg 52%
11:00 +33°C° 0 mm 1 mps 724 mmHg 46%
12:00 +34°C° 0 mm 1 mps 724 mmHg 40%
13:00 +35°C° 0 mm 2 mps 723 mmHg 39%
14:00 +35°C° 0 mm 2 mps 722 mmHg 38%
15:00 +35°C° 0 mm 2 mps 722 mmHg 37%
16:00 +32°C° 0 mm 2 mps 722 mmHg 41%
17:00 +31°C° 0 mm 1 mps 722 mmHg 44%
18:00 +29°C° 0 mm 1 mps 722 mmHg 48%
19:00 +27°C° 0 mm 1 mps 723 mmHg 54%
20:00 +26°C° 0 mm 1 mps 723 mmHg 61%
21:00 +25°C° 0 mm 1 mps 724 mmHg 68%
22:00 +24°C° 0 mm 1 mps 724 mmHg 69%
23:00 +24°C° 0 mm 1 mps 724 mmHg 71%
Show more

We Need Your Consent

Meteoprog and our Service Providers may store and access personal data such as cookies, device identifiers or other similar technologies on your device and process such data to personalise content and ads, as well as provide social media features and to analyse the traffic.

  • Store and/or access information on your device

    Cookies, device identifiers or other information can be stored or accessed on your device for the purposes indicated above.

  • Personalised ads and content, ad and content measurement, audience insights, and products development

    Ads and content can be personalised based on a profile. More data can be added to better personalise ads and content. Ad and content performance can be measured. Insights about the audience who saw the ads and content can be derived. Such data can be used to develop or improve user’s experience, systems and software.

By clicking ‘I Agree’ you will allow the use of indicated cookies, device identifiers, web beacons or other similar technologies. Your settings can be changed in the browser on your device.

For certain purposes, legitimate interests may be relied on, rather than consent. You can read more about this in our Privacy and Cookie Policy.